Showing default

COSMOS 1913, 18792

Orbit data source: Space-Track

COSMOS 1913, 18792 is a payload satellite owned by UNKS (CIS) in LEO that was launched on Fri, 15 Jan 1988 UTC via a TSIKLON-3 launch vehicle from the Plesetsk Missile And Space Complex (PKMTR). Payload-class satellites include a variety of spacecraft equipped with specific instruments for various scientific and technological missions. These include communications satellites like Starlink; space stations such as the ISS; scientific satellites like the Hubble; Earth observation satellites from companies like Planet Labs, Umbra, and HawkEye 360; GPS; miniature CubeSats for education and research; and military/defense satellites.

Loading next visibility...
Identifier
18792, 1988-002E
Orbit
LEO
Last TLE update
19 hours ago
Origin
Manufacturer
NPO PM
Mission
Defense Communications
Bus & Motor
STRELA-3, Unknown motor
Mass
225 kg wet, 225 kg dry
Launch date (UTC)
1988-01-15 (37 years ago)
Launch vehicle
TSIKLON-3
Launch site
Plesetsk Missile And Space Complex (PKMTR)
Object type
Payload
Rocket body
Debris
Shape & HBR
Cyl, 1.6 m
Radar Cross Section
1.257 m², Medium (>0.1 m² and < 1m²)

Expand to show TLE details & history

TLE from 19 hours ago
0 COSMOS 1913
1 18792U 88002E   25186.24871834  .00000017  00000-0  31094-4 0  9993
2 18792  82.5990  78.8091 0014148 134.8947 349.7032 12.65734297730867
Epoch: 2025-07-05T05:58Z
TLE epoch observation values (Epoch: 2025-07-05T05:58:09.264Z)
Latitude
54.8365°
Longitude
-124.79119°
Altitude
1,397.544 km
Speed
7.171 km/s
True Right ascension
16h 32m 56s
True Declination
54° 41' 16"
Sunlit
Object was in daylight at epoch
Visualization orbit readout
Latitude
-27.76224°
Longitude
-110.83535°
Altitude
1,406.664 km
Speed
7.157 km/s
Apparent Right ascension
20h 21m 35s
Apparent Declination
-50° 27' 46"
Sunlit
Object is in full shadow
Visualization observer readout
Local Sidereal Time
13:19:19
Azimuth
128.161° SE
Elevation
-38.747°
Doppler factor
1
Orbital elements
Apogee altitude
1,407.68 km
Perigee altitude
1,385.68 km
Semi-major axis
7,774.817 km
Eccentricity
0.00141
Inclination
82.599°
RAAN
78.8091°
Arg. of periapsis
134.8947°
True anomaly
Unknown
Mean anomaly
349.7032°
Eccentric anomaly
Unknown
Mean motion
3.16598 °/min
Orbital period
113.71 mins
BSTAR
0.000031094
Loading maneuver chart data...
Loading SW <> Apogee altitude chart data...
Loading historical data...
Loading historical data...
Loading historical data...
Loading historical data...
Loading historical data...
Loading historical data...
Loading historical data...

COSMOS 1913 Visibility forecast

Observer location: undefined°, undefined°

Span
Click to sort rows by Start time (UTC) header in descending order
Start Az.
Max El. time (UTC)
Max El. Az.
Max El.
End time (UTC)
End Az.
9 mins2025-07-06 02:48:39.373Z29.53° NE2025-07-06 02:52:39.373Z60.788° ENE16.239°2025-07-06 02:57:39.373Z99.547° ESE
15 mins2025-07-06 04:41:39.373Z353.013° N2025-07-06 04:48:39.373Z30.649° NE44.954°2025-07-06 04:56:39.373Z173.782° S
8 mins2025-07-06 06:38:39.373Z310.931° NW2025-07-06 06:42:39.373Z278.999° WNW15.963°2025-07-06 06:46:39.373Z248.576° W
7 mins2025-07-06 15:37:39.373Z101.732° ESE2025-07-06 15:40:39.373Z78.435° E14.924°2025-07-06 15:44:39.373Z47.922° ENE
14 mins2025-07-06 17:27:39.373Z183.429° SSW2025-07-06 17:34:39.373Z26.697° NE44.706°2025-07-06 17:41:39.373Z8.363° NNE
8 mins2025-07-06 19:26:39.373Z268.054° W2025-07-06 19:29:39.373Z292.96° NW17.505°2025-07-06 19:34:39.373Z333.013° NNW
|